Regional Weather Roundup
Issued by NWS Little Rock, AR

Home | Current Version | Previous Version | Text Only | Print | Product List | Glossary On
Versions: 1 2 3 4 5 6 7 8 9 10 11 12 13 14 15 16 17 18 19 20 21 22 23 24 25 26 27 28 29 30 31 32 33 34 35 36 37 38 39 40 41 42 43 44 45 46 47 48 49 50
000
ASUS44 KLZK 262305
RWRLZK

WEATHER ROUNDUP FOR ARKANSAS
NATIONAL WEATHER SERVICE LITTLE ROCK AR
600 PM CDT THU MAR 26 2015

NOTE: "FAIR" INDICATES FEW OR NO CLOUDS BELOW 12,000 FEET WITH NO
SIGNIFICANT WEATHER AND/OR OBSTRUCTIONS TO VISIBILITY.

ARZ001-003-010-029-270000-
NORTHWEST ARKANSAS

CITY           SKY/WX    TMP DP  RH WIND       PRES   REMARKS
FAYETTEVILLE   SUNNY     53  31  42 NW13      30.07S
FORT SMITH     SUNNY     60  27  28 N16       30.06S
HARRISON       SUNNY     53  27  36 N9        30.05R
BENTONVILLE    SUNNY     54  27  35 N15       30.08S
ROGERS         SUNNY     52  26  36 NW13      30.08S
SILOAM SPGS    SUNNY     54  30  40 N16       30.10S
HIGHFILL       SUNNY     54  28  36 N13       30.07F
SPRINGDALE     SUNNY     54  28  37 NW12      30.08F
$$

ARZ004-005-016-270000-
NORTH CENTRAL ARKANSAS

CITY           SKY/WX    TMP DP  RH WIND       PRES   REMARKS
BATESVILLE     SUNNY     55  36  47 NW3       30.03R
FLIPPIN        SUNNY     55  30  38 NW8       30.04S
MTN HOME       SUNNY     54  26  34 N10G17    30.03R
$$

ARZ040-041-270000-
WEST CENTRAL ARKANSAS

CITY           SKY/WX    TMP DP  RH WIND       PRES   REMARKS
MENA           SUNNY     61  34  36 N8        30.04S
MOUNT IDA      SUNNY     60  37  42 N9        30.00F
$$

ARZ009-017-025-026-028-270000-
NORTHEAST ARKANSAS

CITY           SKY/WX    TMP DP  RH WIND       PRES   REMARKS
CORNING          N/A     54  36  50 N9        30.03R
JONESBORO      MOSUNNY   50  38  63 N10       30.02S
NEWPORT        MOSUNNY   53  37  54 N10G23    30.05R
BLYTHEVILLE    CLOUDY    47  41  80 N15       30.02S
$$

ARZ022-023-033-042-044-270000-
CENTRAL ARKANSAS

CITY           SKY/WX    TMP DP  RH WIND       PRES   REMARKS
LITTLE ROCK    MOSUNNY   57  36  45 N10       30.04R
N LITTLE ROCK  MOSUNNY   55  41  60 N7G16     30.04R
JACKSONVILLE   SUNNY     56  38  51 VRB6      30.03R
SEARCY         SUNNY     55  38  52 NW7       30.05R
HOT SPRINGS    SUNNY     58  36  43 N8        30.03R
RUSSELLVILLE   SUNNY     60  31  33 N9        30.03R
CLINTON        FAIR      57  34  41 NW6       30.05R
$$

ARZ036-270000-
EAST ARKANSAS

CITY           SKY/WX    TMP DP  RH WIND       PRES   REMARKS
WEST MEMPHIS   CLOUDY    48  43  82 N13       30.01R
$$

ARZ050-053-066-070-073-270000-
SOUTHWEST ARKANSAS

CITY           SKY/WX    TMP DP  RH WIND       PRES   REMARKS
ARKADELPHIA    FAIR      60  44  55 NE7       30.03S
CAMDEN         MOSUNNY   57  45  62 MISG      30.03R
TEXARKANA      SUNNY     62  42  47 NE9       30.01F
EL DORADO      CLOUDY    54  44  69 N15G24    30.01R
$$

ARZ056-057-069-270000-
SOUTHEAST ARKANSAS

CITY           SKY/WX    TMP DP  RH WIND       PRES   REMARKS
PINE BLUFF     CLOUDY    52  45  77 N12       30.02S
STUTTGART      CLOUDY    52  43  71 N12       30.03S
MONTICELLO     CLOUDY    51  45  79 VRB7      29.99R

$$




USA.gov is the U.S. government's official web portal to all federal, state and local government web resources and services.